Flag for Spain Weather past 2 weeks in Barcelona, Barcelona, Spain

Now
73 °F

Passing clouds.


Feels Like: 73 °F
Forecast: 74 / 83 °F
Wind: 7 mph from Northwest

Location: Barcelona Airport

Current Time: Aug 3, 2015 at 6:40:12 AM

Latest Report: Aug 3, 2015 at 5:30 AM


Visibility: N/A

Pressure: 30.01 "Hg

Humidity: 83%

Dew point: 68 °F

Location of BarcelonaLocation

Historic Weather in Barcelona — Graph

°F

Barcelona temperature yesterday

Maximum temperature yesterday: 82 °F (at 2:00 PM)
Minimum temperature yesterday: 68 °F (at 5:00 AM)
Average temperature yesterday: 76 °F

Past Weeks' High & Low Weather Summary

 TemperatureHumidityPressure
High90 °F (Jul 22, 1:00 PM)94% (Aug 1, 2:30 AM)30.07 "Hg (Aug 1, 2:30 AM)
Low66 °F (Aug 1, 2:30 AM)43% (Jul 22, 11:30 AM)29.74 "Hg (Jul 24, 6:00 PM)
Average79 °F73%29.94 "Hg
* Reported Jul 19 5:00 AM — Aug 3 5:00 AM, Barcelona, Weather by CustomWeather, © 2015

Note: Actual official high and low records may vary slightly from our data, if they occured in-between our weather recording intervals... More about our weather records

Advertising

Barcelona weather history for previous 24 hours

 ConditionsComfort  
Time TempWeatherWind HumidityBarometerVisibility
5:00 AM
Mon, Aug 3
73 °FPassing clouds.7 mph83%30.01 "HgN/A
4:30 AM73 °FPassing clouds.5 mph83%30.04 "HgN/A
4:00 AM73 °FPassing clouds.3 mph83%30.04 "HgN/A
3:30 AM73 °FPassing clouds.6 mph83%30.04 "HgN/A
3:00 AM73 °FPassing clouds.3 mph83%30.04 "HgN/A
2:30 AM75 °FPassing clouds.3 mph78%30.04 "HgN/A
2:00 AM75 °FPassing clouds.2 mph83%30.04 "HgN/A
1:30 AM77 °FPassing clouds.2 mph79%30.04 "HgN/A
1:00 AM77 °FPassing clouds.2 mph79%30.04 "HgN/A
12:30 AM77 °FPassing clouds.5 mph79%30.04 "HgN/A
12:00 AM77 °FPassing clouds.6 mph79%30.04 "HgN/A
11:30 PM
Sun, Aug 2
77 °FPassing clouds.7 mph79%30.04 "HgN/A
10:00 PM79 °FPartly sunny.12 mph74%30.01 "HgN/A
9:30 PM79 °FScattered clouds.12 mph74%30.01 "HgN/A
9:00 PM79 °FScattered clouds.14 mph74%30.01 "HgN/A
8:30 PM79 °FPassing clouds.16 mph70%30.01 "HgN/A
8:00 PM79 °FPassing clouds.17 mph74%30.01 "HgN/A
7:30 PM81 °FPassing clouds.16 mph66%29.98 "HgN/A
7:00 PM81 °FPassing clouds.18 mph66%30.01 "HgN/A
6:30 PM81 °FPassing clouds.18 mph66%30.01 "HgN/A
6:00 PM82 °FSunny.20 mph62%30.01 "Hg10 mi
5:30 PM82 °FSunny.21 mph58%30.01 "Hg10 mi
5:00 PM82 °FSunny.17 mph62%30.01 "Hg10 mi
4:30 PM82 °FSunny.18 mph58%30.01 "Hg10 mi
4:00 PM81 °FSunny.17 mph62%30.01 "Hg10 mi
3:30 PM82 °FSunny.18 mph58%30.01 "Hg10 mi
3:00 PM82 °FSunny.20 mph58%30.01 "Hg10 mi
2:30 PM82 °FPassing clouds.21 mph62%30.04 "HgN/A
2:00 PM82 °FPassing clouds.21 mph58%30.04 "HgN/A
1:30 PM81 °FPassing clouds.21 mph62%30.04 "HgN/A
1:00 PM81 °FPassing clouds.21 mph62%30.04 "HgN/A
12:30 PM81 °FPassing clouds.17 mph62%30.04 "HgN/A
12:00 PM81 °FPassing clouds.14 mph66%30.04 "HgN/A
11:30 AM79 °FPassing clouds.12 mph61%30.04 "HgN/A
11:00 AM79 °FPassing clouds.13 mph61%30.04 "HgN/A
10:30 AM79 °FSunny.3 mph61%30.04 "Hg10 mi
10:00 AM77 °FPassing clouds.5 mph69%30.04 "HgN/A
9:30 AM75 °FPassing clouds.6 mph69%30.04 "HgN/A
9:00 AM72 °FPassing clouds.9 mph78%30.04 "HgN/A
8:30 AM70 °FSunny.9 mph83%30.04 "Hg10 mi
8:00 AM70 °FSunny.8 mph83%30.04 "Hg10 mi
7:30 AM68 °FPassing clouds.8 mph88%30.04 "HgN/A
7:00 AM68 °FPassing clouds.10 mph88%30.04 "HgN/A
6:30 AM68 °FClear.9 mph88%30.04 "Hg10 mi
6:00 AM68 °FClear.10 mph88%30.04 "Hg10 mi
Weather by CustomWeather, © 2015

See weather overviewHow to use our weather pages